OpenBCM V1.08-3-g9b42 (Linux)

Packet Radio Mailbox

OK0NBR

[Sao_Jose_dos_Campo]

 Login: GUEST





  
I0OJJ  > KEPS     25.12.25 23:07l 322 Lines 15316 Bytes #237 (0) @ AMSAT
BID : ORB25360.1
Read: GUEST
Subj: 2Line Orbital Elements 25360.AMSAT
Path: OK0NBR<SR1BSZ<EA2RCF<I0OJJ
Sent: 251226/0021z @:I0OJJ.ITA.EU [Rome] obcm1.08-11-2-gbfe9
From: I0OJJ @ I0OJJ.ITA.EU (Gustavo)
To:   KEPS @ AMSAT
X-Info: This message was generated automatically


QST de W1STR

AMSAT Orbital Elements for Amateur Satellites in TLE Format
From Orbital Analysis Office
New England Sci-Tech STEM Education Center
Natick MA December 26, 2025
To all radio amateurs


These element sets describe the orbits of various satellites 
in use by the amateur radio community. For details see:
www.amsat.org/keplerian-elements-formats/

A daily update of element sets is available at:
www.amsat.org/tle/daily-bulletin.txt
or without bulletin text:
www.amsat.org/tle/dailytle.txt


AO-07
1 07530U 74089B   25359.51767933 -.00000042  00000-0  25435-4 0  9998
2 07530 101.9966   5.9194 0012403 102.6111  25.7735 12.53694461338755
UO-11
1 14781U 84021B   25359.82010991  .00001624  00000-0  17324-3 0  9993
2 14781  97.7832 322.6468 0008838  45.6634 314.5307 14.90184636231309
AO-27
1 22825U 93061C   25359.72532916  .00000133  00000-0  67943-4 0  9997
2 22825  98.7127  62.0224 0007418 246.2096 113.8309 14.30881429682191
FO-29
1 24278U 96046B   25359.85990499  .00000002  00000-0  37154-4 0  9991
2 24278  98.5454 227.2335 0349752 185.9070 173.7894 13.53263262449722
GO-32
1 25397U 98043D   25359.84266828  .00000088  00000-0  58223-4 0  9998
2 25397  98.9934 343.3579 0001634  35.6361 324.4926 14.24380564426652
ISS
1 25544U 98067A   25359.56752749  .00014081  00000-0  25591-3 0  9998
2 25544  51.6318  78.9495 0003224 299.9641  60.1027 15.49813539544848
NO-44
1 26931U 01043C   25359.23937887  .00000211  00000-0  10959-3 0  9991
2 26931  67.0516 334.1530 0007401 269.2116  90.8138 14.31861747265549
SO-50
1 27607U 02058C   25359.21829028  .00002223  00000-0  28233-3 0  9993
2 27607  64.5545 307.0290 0072798 294.3102  65.0413 14.82442851238661
CO-55
1 27844U 03031E   25359.51698360  .00000356  00000-0  17369-3 0  9997
2 27844  98.6763   5.2551 0009113 336.0303  24.0451 14.24189755166955
CO-57
1 27848U 03031J   25359.56000103  .00000301  00000-0  15159-3 0  9993
2 27848  98.6794   5.1495 0009307 354.5515   5.5560 14.23496301166675
RS-22
1 27939U 03042A   25359.89728741  .00002077  00000-0  33126-3 0  9993
2 27939  98.3368 174.4475 0012464  96.9693  10.9162 14.73007898190039
CO-58
1 28895U 05043F   25359.35765230  .00001823  00000-0  29869-3 0  9990
2 28895  98.2733 146.6499 0014934  40.6057 319.6261 14.71945325 76178
CO-65
1 32785U 08021C   25351.68477250  .00005656  00000-0  38073-3 0  9997
2 32785  97.8081 324.8433 0007829 290.5969  69.4418 15.07103756957832
CO-66
1 32791U 08021J   25359.43231338  .00018546  00000-0  73016-3 0  9998
2 32791  97.7458 345.0185 0002949 157.5338 202.6029 15.25673973960730
RS-30
1 32953U 08025A   25359.82857575  .00000076  00000-0  47927-3 0  9993
2 32953  82.5033 103.2833 0018560 331.8426  28.1649 12.43172400798156
SRMSAT
1 37841U 11058D   25359.45546843  .00000434  00000-0  91991-4 0  9995
2 37841  19.9731  30.9947 0011992  92.4725 296.1471 14.11515651733247
ZACUBE-1
1 39417U 13066B   25351.39749824  .00003280  00000-0  27002-3 0  9999
2 39417  97.8056 307.9496 0042001 132.1904 228.2897 14.99124350653477
Delfi-N3xt
1 39428U 13066N   25359.75274617  .00008819  00000-0  82157-3 0  9997
2 39428  97.8347 275.5773 0080754  63.1368 297.8077 14.92017031648739
GOMX-1
1 39430U 13066Q   25359.84680711  .00003332  00000-0  51264-3 0  9996
2 39430  97.6580 206.1538 0129011 274.2177  84.4295 14.68651650644463
LO-74
1 39440U 13066AA  25351.56788106  .00003439  00000-0  33426-3 0  9993
2 39440  97.8708 295.2332 0058016 269.4523  90.0047 14.92015584649893
AO-73
1 39444U 13066AE  25359.81013083  .00008972  00000-0  60552-3 0  9995
2 39444  97.8085 323.2519 0040786  73.4437 287.1263 15.06166862653533
DTUSAT-2
1 40030U 14033W   25351.70002679  .00007073  00000-0  41774-3 0  9998
2 40030  98.0754 333.4459 0009697 125.2587 234.9550 15.11812878625232
EO-80
1 40032U 14033Y   25359.45354431  .00008998  00000-0  52707-3 0  9991
2 40032  98.0657 341.0138 0009485  54.3674 305.8437 15.12024388626380
LILACSAT-2
1 40908U 15049K   25359.88465441  .00016868  00000-0  35754-3 0  9990
2 40908  97.4901  25.6731 0008624 150.4404 209.7334 15.45115466568932
IO-86
1 40931U 15052B   25151.18580175  .00001241  00000-0  78118-4 0  9996
2 40931   6.0006  24.0987 0012733 338.8432  21.1169 14.78805930523159
Horyu-4
1 41340U 16012D   25358.33003920  .00053178  00000-0  85629-3 0  9992
2 41340  30.9927 230.3403 0006686 347.7188  12.3298 15.51642360543351
Lapan A3
1 41603U 16040E   25359.89215167  .00004743  00000-0  15744-3 0  9990
2 41603  97.1436 356.9706 0008653 279.0928  80.9335 15.31659521528271
CAS-2T
1 41847U 16066G   25359.78693270  .00001179  00000-0  17670-3 0  9991
2 41847  98.4021  72.4003 0342512 295.5200  61.0941 14.44161555479766
TechnoSat
1 42829U 17042E   25359.44044831  .00003972  00000-0  29462-3 0  9998
2 42829  97.4059 159.1014 0017153 332.9781  27.0550 15.03509189460585
AO-91
1 43017U 17073E   25359.57561497  .00011623  00000-0  54568-3 0  9995
2 43017  97.4939 225.4821 0159477 206.0429 153.2715 15.09129614439174
S-Net D
1 43186U 18014G   25359.70439139  .00006273  00000-0  34403-3 0  9991
2 43186  97.5482 260.6895 0006803 258.5617 101.4851 15.14507593432487
S-Net B
1 43187U 18014H   25359.71265619  .00006201  00000-0  34033-3 0  9993
2 43187  97.5490 260.6787 0007413 252.6178 107.4243 15.14483969432483
S-Net A
1 43188U 18014J   25359.70404536  .00006201  00000-0  34008-3 0  9998
2 43188  97.5497 260.8488 0007329 253.7623 106.2802 15.14513726432487
S-Net C
1 43189U 18014K   25359.71566378  .00006285  00000-0  34485-3 0  9994
2 43189  97.5514 260.9077 0008751 244.7872 115.2453 15.14479312431033
Ten-Koh
1 43677U 18084G   25359.50370734  .00003104  00000-0  24238-3 0  9991
2 43677  98.0753 179.6423 0008448 349.9621  10.1433 15.01894805390084
PO-101
1 43678U 18084H   25359.79813694  .00003916  00000-0  32401-3 0  9992
2 43678  98.1042 183.7885 0007494  13.6353 346.5070 14.99510340390226
QO-100
1 43700U 18090A   25359.69191936  .00000000  00000-0  00000+0 0  9999
2 43700   0.0198   4.9799 0001272 300.2613  64.0851  1.00270528 25937
MinXSS-2
1 43758U 18099A   25359.72916625  .00028368  00000-0  82983-3 0  9996
2 43758  97.4774  67.2738 0009756 164.8110 195.3428 15.35179878387417
AO-95
1 43770U 18099N   25359.61297677  .00012642  00000-0  55291-3 0  9997
2 43770  97.4651  55.8007 0008394 233.4884 126.5580 15.22177191386770
SNUSat 2
1 43782U 18099AA  25359.64137729  .00009952  00000-0  48478-3 0  9993
2 43782  97.4334  50.8273 0011079 175.5998 184.5336 15.18498354386660
SnugLite
1 43784U 18099AC  25359.66251836  .00012480  00000-0  53988-3 0  9995
2 43784  97.4141  50.9409 0003431 155.9943 204.1454 15.22575917386874
ITASat 1
1 43786U 18099AE  25359.69953394  .00008649  00000-0  44941-3 0  9999
2 43786  97.4302  49.7407 0012185 233.3038 126.7076 15.16261856386596
EAGLET 1
1 43790U 18099AJ  25359.68311065  .00005577  00000-0  33506-3 0  9998
2 43790  97.4501  48.8868 0010512 219.3041 140.7427 15.11237061386113
ESEO
1 43792U 18099AL  25359.65956814  .00002570  00000-0  19235-3 0  9997
2 43792  97.4229  39.3150 0011834 199.5397 160.5378 15.03541604385725
JO-97
1 43803U 18099AX  25359.72467303  .00017750  00000-0  66623-3 0  9997
2 43803  97.4400  57.5003 0006863 156.5709 203.5844 15.27248768387093
Suomi 100
1 43804U 18099AY  25359.72629187  .00014222  00000-0  59495-3 0  9998
2 43804  97.4460  56.0864 0011263 165.7266 194.4291 15.23633441386960
ISAT
1 43879U 18111D   25358.67527542  .00041298  00000-0  94485-3 0  9991
2 43879  97.5914 278.8592 0004795 187.2559 172.8619 15.42686612384089
UWE-4
1 43880U 18111E   25359.73875716  .00027143  00000-0  79845-3 0  9996
2 43880  97.5858 276.6300 0007707 217.0785 142.9926 15.35031110384077
Sparrow
1 43881U 18111F   25359.74281215  .00045973  00000-0  96650-3 0  9997
2 43881  97.6097 283.8064 0001962 226.2683 133.8403 15.45185450384377
Prox-1
1 44339U 19036A   25359.80794064  .00015023  00000-0  16661-2 0  9997
2 44339  23.9945 188.1944 0006177 189.8425 170.1953 14.85518751347612
Taurus 1
1 44530U 19059C   25359.84689921  .00013429  00000-0  22760-2 0  9999
2 44530  98.6232 149.4250 0009143 134.9466 225.2481 14.69360037333162
TO-108
1 44881U 19093C   25359.83000361  .00001647  00000-0  19375-3 0  9998
2 44881  97.7740  71.1680 0012434 300.8979  59.1013 14.86133263325662
FloripaSat 1
1 44885U 19093G   25359.84018439  .00008380  00000-0  65284-3 0  9999
2 44885  97.8021  88.0959 0009365 289.4628  70.5584 15.01435673326611
RS-44
1 44909U 19096E   25359.67951838  .00000025  00000-0  54205-4 0  9999
2 44909  82.5216  95.0110 0217544 189.7972 169.8855 12.79746219280150
SALSAT
1 46495U 20068K   25359.44583882  .00009383  00000-0  36155-3 0  9996
2 46495  97.8799 347.4053 0010093 180.6216 179.5010 15.26535352288820
CSS (TIANHE-1)
1 48274U 21035A   25359.84325175  .00017118  00000-0  21160-3 0  9996
2 48274  41.4681 297.1250 0008437 146.1451 213.9928 15.59690235266071
CUTE
1 49263U 21088D   25359.80492506  .00033246  00000-0  42164-3 0  9999
2 49263  97.4328  83.2443 0004703 210.1146 149.9840 15.59374119235338
TeikyoSat 4
1 49396U 21102B   25359.80089014  .00001812  00000-0  11924-3 0  9993
2 49396  97.3882  30.9089 0012645 162.2651 197.9022 15.08699903226572
Z-Sat
1 49399U 21102E   25359.84195016  .00004661  00000-0  24123-3 0  9990
2 49399  97.3564  35.3900 0018378 128.3536 231.9353 15.16555407227157
KOSEN 1
1 49402U 21102H   25359.64045240  .00008238  00000-0  34355-3 0  9998
2 49402  97.3454  40.2617 0016263  99.6093 260.6983 15.23816706227562
HO-113
1 50466U 21131B   25359.84192751  .00000690  00000-0  22799-3 0  9997
2 50466  98.5043  88.1973 0003092 254.7310 105.3537 14.41129397210147
